1483963201.19,17800,4.56,72790.0,-11.33,-25.91,-21.97,0,*6C
1483963202.49,17801,4.63,72790.3,-11.33,-25.03,-21.23,0,*69
1483963203.7,17802,4.56,72786.3,-11.35,-24.61,-21.13,0,*6A
1483963204.96,17803,4.56,72790.8,-11.33,-23.75,-20.43,0,*6B
1483963206.2,17804,4.56,72784.3,-11.35,-23.85,-20.63,0,*67
1483963207.42,17805,4.56,72790.0,-11.35,-23.59,-20.29,0,*69
1483963208.69,17806,4.56,72786.8,-11.35,-23.65,-20.35,0,*68
1483963209.93,17807,4.56,72788.0,-11.37,-22.83,-19.71,0,*68
1483963211.2,17808,4.56,72790.0,-11.37,-22.97,-19.81,0,*6D
1483963212.42,17809,4.56,72794.5,-11.35,-22.67,-19.71,0,*6E
1483963213.66,17810,4.56,72792.0,-11.35,-23.19,-20.05,0,*67
1483963214.93,17811,4.63,72796.5,-11.35,-24.11,-20.83,0,*67
1483963216.18,17812,4.56,72796.0,-11.39,-23.89,-20.79,0,*6B
1483963217.45,17813,4.56,72794.0,-11.37,-23.99,-21.13,0,*68
1483963218.69,17814,4.56,72792.5,-11.37,-25.09,-22.53,0,*67
1483963219.91,17815,4.56,72786.0,-11.39,-24.77,-22.27,0,*63
1483963221.17,17816,4.56,72794.3,-11.39,-24.47,-21.97,0,*6B
1483963222.4,17817,4.63,72796.0,-11.37,-24.93,-22.53,0,*66
1483963223.64,17818,4.56,72780.8,-11.43,-25.49,-23.09,0,*62
1483963224.91,17819,4.56,72786.5,-11.43,-25.71,-23.59,0,*6D
1483963226.16,17820,4.56,72790.8,-11.43,-25.09,-23.53,0,*62
1483963227.43,17821,4.56,72802.8,-11.47,-23.95,-22.67,0,*62
1483963228.7,17822,4.63,72796.3,-11.47,-22.37,-21.53,0,*6C
1483963229.97,17823,4.56,72792.5,-11.47,-21.93,-21.23,0,*67
1483963231.24,17824,4.56,72798.0,-11.47,-22.83,-21.83,0,*68
1483963232.5,17825,4.56,72792.5,-11.47,-23.03,-21.73,0,*6F
1483963233.73,17826,4.63,72796.0,-11.49,-22.03,-20.35,0,*60
1483963234.97,17827,4.63,72806.8,-11.49,-22.31,-20.29,0,*6D
1483963236.23,17828,4.63,72802.0,-11.51,-22.67,-20.35,0,*65
1483963237.46,17829,4.56,72802.5,-11.51,-22.07,-19.47,0,*6D
1483963238.72,17830,4.63,72802.8,-11.51,-21.33,-18.65,0,*60
1483963239.96,17831,4.63,72804.5,-11.51,-20.93,-18.07,0,*6E
1483963241.25,17832,4.56,72804.0,-11.51,-20.83,-18.01,0,*6A
1483963242.49,17833,4.63,72810.0,-11.49,-20.89,-18.01,0,*68
1483963243.73,17834,4.63,72812.5,-11.49,-19.99,-17.25,0,*6D
1483963244.97,17835,4.56,72814.5,-11.49,-19.71,-17.25,0,*6A
1483963246.18,17836,4.63,72824.0,-11.49,-20.93,-17.69,0,*67
1483963247.38,17837,4.56,72822.3,-11.49,-23.89,-19.07,0,*68
1483963248.62,17838,4.56,72822.3,-11.47,-28.31,-21.73,0,*69
1483963249.89,17839,4.63,72826.0,-11.47,-29.67,-22.77,0,*6D
1483963251.13,17840,4.56,72820.0,-11.45,-30.83,-23.85,0,*6F
1483963252.37,17841,4.63,72820.5,-11.47,-31.79,-24.47,0,*61
1483963253.61,17842,4.56,72818.8,-11.45,-31.73,-24.35,0,*6F
1483963254.9,17843,4.63,72818.3,-11.47,-31.23,-23.99,0,*68
1483963256.11,17844,4.56,72808.8,-11.45,-30.27,-23.13,0,*6A
1483963257.38,17845,4.63,72814.3,-11.43,-29.07,-22.17,0,*62
1483963258.64,17846,4.56,72810.3,-11.43,-27.83,-21.47,0,*65
1483963259.87,17847,4.63,72812.0,-11.43,-27.51,-21.63,0,*6D
1483963261.18,17848,4.63,72816.5,-11.43,-26.97,-21.23,0,*6D
1483963262.45,17849,4.63,72820.0,-11.39,-27.61,-21.83,0,*63
1483963263.7,17850,4.56,72806.8,-11.41,-29.35,-23.09,0,*6B
1483963264.96,17851,4.56,72796.0,-11.41,-31.11,-24.67,0,*6A
1483963266.19,17852,4.63,72798.8,-11.41,-30.61,-24.35,0,*68
1483963267.43,17853,4.56,72798.0,-11.43,-30.83,-25.09,0,*69
1483963268.67,17854,4.63,72806.5,-11.43,-30.67,-24.97,0,*62
1483963269.9,17855,4.56,72796.5,-11.41,-29.73,-24.31,0,*60
1483963271.16,17856,4.63,72796.8,-11.41,-28.09,-23.49,0,*67
1483963272.46,17857,4.63,72794.5,-11.37,-25.55,-22.17,0,*69
1483963273.74,17858,4.63,72792.8,-11.37,-24.61,-22.31,0,*64
1483963274.98,17859,4.63,72790.5,-11.39,-22.87,-21.03,0,*67
1483963276.28,17860,4.56,72782.3,-11.37,-20.83,-19.27,0,*68
1483963277.54,17861,4.63,72790.3,-11.37,-19.81,-18.07,0,*62
1483963278.83,17862,4.63,72790.5,-11.33,-18.93,-17.11,0,*6F
1483963280.07,17863,4.56,72784.0,-11.31,-19.47,-17.25,0,*63
1483963281.32,17864,4.63,72796.5,-11.31,-19.51,-17.11,0,*64
1483963282.54,17865,4.63,72800.3,-11.27,-19.47,-16.93,0,*6E
1483963283.78,17866,4.63,72804.3,-11.27,-20.05,-17.21,0,*69
1483963284.99,17867,4.63,72808.0,-11.27,-20.69,-17.49,0,*6C
1483963286.26,17868,4.63,72804.5,-11.27,-21.27,-17.93,0,*6F
1483963287.51,17869,4.63,72804.8,-11.27,-21.93,-18.35,0,*62
1483963288.75,17870,4.63,72802.8,-11.27,-21.83,-18.49,0,*60
1483963289.96,17871,4.56,72804.8,-11.23,-22.03,-18.83,0,*68
1483963291.22,17872,4.56,72794.8,-11.25,-21.97,-18.83,0,*63
1483963292.46,17873,4.56,72798.3,-11.23,-22.31,-19.13,0,*63
1483963293.73,17874,4.63,72798.0,-11.25,-23.19,-19.75,0,*69
1483963294.98,17875,4.56,72796.3,-11.25,-23.69,-19.71,0,*6B
1483963296.23,17876,4.63,72810.5,-11.25,-24.61,-19.75,0,*63
1483963297.47,17877,4.56,72806.5,-11.25,-25.49,-20.09,0,*68
1483963298.71,17878,4.63,72806.8,-11.25,-25.65,-19.95,0,*66
1483963299.96,17879,4.63,72810.3,-11.27,-25.81,-20.25,0,*6E
1483963301.21,17880,4.63,72814.0,-11.27,-25.29,-20.25,0,*6A
1483963302.43,17881,4.63,72808.8,-11.27,-24.61,-19.91,0,*63
1483963303.7,17882,4.56,72814.3,-11.31,-24.11,-19.81,0,*61
1483963304.95,17883,4.56,72812.5,-11.31,-24.21,-19.95,0,*66
1483963306.19,17884,4.56,72818.0,-11.27,-23.85,-19.71,0,*65
1483963307.41,17885,4.63,72814.8,-11.27,-23.89,-19.75,0,*6C
1483963308.66,17886,4.63,72812.5,-11.31,-24.25,-19.99,0,*6B
1483963309.88,17887,4.63,72812.5,-11.27,-23.89,-19.91,0,*64
1483963311.17,17888,4.63,72814.3,-11.25,-23.53,-19.81,0,*6F
1483963312.42,17889,4.63,72810.5,-11.23,-23.03,-19.75,0,*66
1483963313.63,17890,4.63,72802.8,-11.23,-22.03,-19.37,0,*69
1483963314.84,17891,4.63,72802.8,-11.19,-21.63,-18.99,0,*61
1483963316.12,17892,4.56,72798.5,-11.17,-20.59,-17.97,0,*65
1483963317.39,17893,4.63,72802.3,-11.17,-20.59,-17.97,0,*64
1483963318.63,17894,4.63,72800.3,-11.11,-20.99,-18.07,0,*6F
1483963319.84,17895,4.63,72802.8,-11.05,-21.43,-18.41,0,*6F
1483963321.08,17896,4.63,72806.5,-11.05,-21.67,-19.03,0,*6D
1483963322.35,17897,4.63,72804.5,-11.03,-20.93,-18.31,0,*60
1483963323.59,17898,4.63,72800.5,-11.01,-20.83,-18.99,0,*6E
1483963324.83,17899,4.63,72802.3,-11.03,-20.25,-18.49,0,*6C
1483963326.07,17900,4.63,72798.0,-11.01,-19.23,-17.83,0,*6A
1483963327.34,17901,4.56,72798.0,-11.01,-18.59,-17.07,0,*6B
1483963328.61,17902,4.63,72796.0,-11.01,-17.97,-16.31,0,*61
1483963329.88,17903,4.63,72796.8,-10.99,-17.93,-16.03,0,*65
1483963331.15,17904,4.63,72794.8,-10.95,-17.59,-15.49,0,*65
1483963332.45,17905,4.63,72796.3,-10.95,-17.45,-15.35,0,*62
1483963333.69,17906,4.63,72788.5,-10.95,-18.07,-15.95,0,*62
1483963334.95,17907,4.63,72792.5,-10.93,-18.59,-16.23,0,*60
1483963336.16,17908,4.63,72792.5,-10.93,-18.73,-16.37,0,*62
1483963337.43,17909,4.56,72786.0,-10.95,-18.99,-16.69,0,*6A
1483963338.64,17910,4.63,72794.5,-10.93,-19.37,-16.89,0,*6F
1483963339.9,17911,4.63,72796.3,-10.95,-19.13,-16.55,0,*6F
1483963341.13,17912,4.63,72796.3,-10.93,-19.07,-16.65,0,*6C
1483963342.38,17913,4.63,72796.3,-10.91,-19.17,-16.83,0,*66
1483963343.68,17914,4.63,72796.0,-10.91,-19.41,-17.21,0,*6B
1483963344.93,17915,4.56,72790.8,-10.91,-19.71,-17.83,0,*61
1483963346.16,17916,4.56,72790.8,-10.93,-19.41,-17.73,0,*6C
1483963347.41,17917,4.63,72794.3,-10.91,-19.17,-17.83,0,*63
1483963348.68,17918,4.56,72784.0,-10.91,-18.65,-17.59,0,*6F
1483963349.92,17919,4.63,72786.0,-10.93,-18.25,-17.45,0,*65
1483963351.15,17920,4.63,72786.0,-10.93,-17.69,-17.11,0,*69
1483963352.39,17921,4.56,72782.8,-10.93,-17.21,-16.55,0,*65
1483963353.64,17922,4.63,72786.3,-10.93,-17.21,-16.55,0,*66
1483963354.9,17923,4.63,72786.5,-10.89,-17.03,-16.27,0,*69
1483963356.17,17924,4.63,72778.5,-10.91,-17.35,-16.31,0,*65
1483963357.44,17925,4.63,72784.0,-10.89,-17.21,-16.17,0,*6C
1483963358.74,17926,4.56,72774.5,-10.91,-18.31,-17.03,0,*6C
1483963359.98,17927,4.56,72778.5,-10.89,-18.45,-17.17,0,*62
1483963361.22,17928,4.56,72780.5,-10.89,-18.69,-17.21,0,*66
1483963362.47,17929,4.63,72782.0,-10.91,-18.79,-17.35,0,*6A
1483963363.74,17930,4.63,72780.0,-10.91,-19.17,-17.55,0,*6D
1483963364.99,17931,4.63,72790.5,-10.93,-19.23,-17.35,0,*6F
1483963366.23,17932,4.63,72788.0,-10.93,-19.71,-17.55,0,*6D
1483963367.5,17933,4.63,72796.0,-10.95,-19.75,-17.41,0,*6B
1483963368.71,17934,4.63,72792.8,-10.97,-20.39,-17.49,0,*64
1483963369.96,17935,4.63,72796.0,-10.97,-20.99,-17.83,0,*69
1483963371.16,17936,4.63,72798.0,-10.97,-21.63,-18.25,0,*6D
1483963372.4,17937,4.56,72788.8,-10.99,-22.07,-18.45,0,*65
1483963373.65,17938,4.63,72788.0,-10.99,-23.39,-19.65,0,*65
1483963374.92,17939,4.56,72790.8,-10.99,-23.85,-19.95,0,*6C
1483963376.18,17940,4.63,72792.0,-11.03,-24.51,-20.59,0,*64
1483963377.43,17941,4.63,72790.0,-11.03,-24.57,-20.89,0,*6E
1483963378.7,17942,4.63,72786.0,-11.09,-23.99,-20.43,0,*64
1483963379.96,17943,4.63,72788.5,-11.09,-23.99,-20.93,0,*68
1483963381.24,17944,4.63,72790.5,-11.09,-23.69,-20.83,0,*61
1483963382.49,17945,4.63,72782.5,-11.09,-23.43,-20.63,0,*66
1483963383.73,17946,4.63,72782.3,-11.13,-22.57,-20.05,0,*6A
1483963385.0,17947,4.63,72782.8,-11.13,-22.53,-20.19,0,*62
1483963386.25,17948,4.63,72788.8,-11.15,-21.93,-19.61,0,*61
1483963387.54,17949,4.63,72788.0,-11.17,-21.87,-19.65,0,*63
1483963388.78,17950,4.63,72790.3,-11.15,-21.63,-19.27,0,*65
1483963390.04,17951,4.63,72792.8,-11.17,-21.57,-19.17,0,*62
1483963391.3,17952,4.56,72798.8,-11.17,-21.47,-19.23,0,*67
1483963392.59,17953,4.63,72792.8,-11.17,-21.23,-18.93,0,*6E
1483963393.88,17954,4.63,72800.0,-11.21,-20.19,-18.01,0,*6F
1483963395.14,17955,4.63,72810.5,-11.21,-20.63,-18.59,0,*6E
1483963396.4,17956,4.63,72812.0,-11.21,-20.19,-18.17,0,*6A
1483963397.65,17957,4.63,72812.5,-11.21,-20.29,-18.01,0,*6F
1483963398.94,17958,4.63,72818.8,-11.21,-21.23,-18.93,0,*60
1483963400.19,17959,4.63,72820.8,-11.23,-22.37,-19.27,0,*6B
1483963401.4,17960,4.56,72822.8,-11.23,-22.87,-19.51,0,*6B
1483963402.67,17961,4.63,72814.8,-11.21,-23.19,-19.99,0,*6A
1483963403.91,17962,4.63,72818.8,-11.23,-22.73,-19.75,0,*64
1483963405.18,17963,4.63,72812.8,-11.23,-22.77,-20.19,0,*61
1483963406.44,17964,4.63,72816.3,-11.23,-22.73,-20.35,0,*6C
1483963407.72,17965,4.63,72816.3,-11.25,-22.77,-20.39,0,*63
1483963409.01,17966,4.63,72814.5,-11.25,-23.33,-20.83,0,*60
1483963410.24,17967,4.63,72812.8,-11.27,-22.57,-19.75,0,*63
1483963411.49,17968,4.63,72806.3,-11.27,-23.19,-20.25,0,*68
1483963412.74,17969,4.63,72802.3,-11.27,-24.31,-20.99,0,*63
1483963413.96,17970,4.63,72800.8,-11.31,-24.57,-21.17,0,*6B
1483963415.21,17971,4.63,72800.8,-11.31,-23.95,-20.29,0,*6F
1483963416.42,17972,4.63,72802.5,-11.27,-23.39,-20.05,0,*63
1483963417.7,17973,4.63,72806.5,-11.31,-24.71,-21.33,0,*6A
1483963418.94,17974,4.63,72820.8,-11.31,-24.87,-21.39,0,*6E
1483963420.21,17975,4.63,72824.5,-11.35,-23.99,-20.79,0,*66
1483963421.48,17976,4.63,72822.5,-11.35,-23.33,-20.35,0,*6D
1483963422.74,17977,4.63,72814.8,-11.37,-22.83,-20.15,0,*66
1483963424.01,17978,4.63,72808.8,-11.37,-22.63,-20.35,0,*65
1483963425.27,17979,4.63,72818.3,-11.39,-21.97,-19.85,0,*63
1483963426.54,17980,4.56,72808.3,-11.37,-20.19,-18.21,0,*63
1483963427.76,17981,4.63,72806.8,-11.39,-20.39,-18.49,0,*60
1483963429.03,17982,4.63,72804.3,-11.37,-21.27,-19.37,0,*6B
1483963430.25,17983,4.63,72800.3,-11.39,-21.63,-19.47,0,*63
1483963431.47,17984,4.63,72798.3,-11.39,-21.93,-19.75,0,*6A
1483963432.72,17985,4.63,72792.0,-11.39,-22.53,-20.35,0,*6A
1483963433.96,17986,4.63,72788.3,-11.41,-23.09,-21.03,0,*6C
1483963435.2,17987,4.63,72784.8,-11.41,-23.09,-21.33,0,*6E
1483963436.43,17988,4.63,72782.5,-11.41,-23.03,-21.47,0,*68
1483963437.65,17989,4.63,72784.3,-11.41,-22.07,-20.89,0,*6F
1483963438.94,17990,4.63,72782.0,-11.43,-21.83,-20.83,0,*60
1483963440.2,17991,4.63,72782.3,-11.43,-21.33,-20.73,0,*65
1483963441.46,17992,4.63,72790.5,-11.43,-21.09,-20.53,0,*6D
1483963442.71,17993,4.63,72802.5,-11.43,-21.17,-20.59,0,*69
1483963443.92,17994,4.63,72806.8,-11.41,-19.71,-19.17,0,*67
1483963445.16,17995,4.63,72810.8,-11.41,-19.27,-18.79,0,*6C
1483963446.4,17996,4.63,72806.5,-11.41,-19.71,-19.27,0,*66
1483963447.66,17997,4.56,72800.8,-11.41,-19.61,-18.89,0,*63
1483963448.87,17998,4.63,72792.5,-11.41,-18.79,-17.73,0,*6E
1483963450.11,17999,4.63,72792.3,-11.41,-18.99,-17.79,0,*6B
1483963451.34,18000,4.63,72798.8,-11.41,-19.41,-17.87,0,*68
1483963452.55,18001,4.63,72794.3,-11.41,-20.25,-18.21,0,*62
1483963453.8,18002,4.63,72794.3,-11.43,-20.29,-17.93,0,*69
1483963455.03,18003,4.63,72792.5,-11.41,-20.69,-17.93,0,*6E
1483963456.27,18004,4.63,72794.5,-11.45,-21.17,-17.97,0,*61
1483963457.53,18005,4.63,72788.5,-11.47,-20.63,-17.25,0,*69
1483963458.75,18006,4.56,72794.8,-11.45,-20.89,-17.49,0,*66
1483963459.99,18007,4.56,72802.8,-11.45,-21.17,-17.63,0,*69
1483963461.23,18008,4.63,72800.5,-11.45,-21.33,-17.69,0,*6A
1483963462.48,18009,4.63,72798.8,-11.43,-21.83,-18.25,0,*61
1483963463.74,18010,4.56,72802.5,-11.41,-22.17,-18.59,0,*6E
1483963464.95,18011,4.63,72796.0,-11.41,-22.41,-19.13,0,*63
1483963466.17,18012,4.56,72792.8,-11.41,-21.83,-18.79,0,*60
1483963467.38,18013,4.63,72800.3,-11.41,-21.43,-18.49,0,*6E
1483963468.65,18014,4.63,72798.3,-11.37,-21.23,-18.65,0,*60
1483963469.92,18015,4.63,72800.5,-11.39,-20.53,-18.35,0,*6C
1483963471.18,18016,4.63,72806.8,-11.37,-20.19,-18.17,0,*6F
1483963472.48,18017,4.56,72814.8,-11.37,-19.57,-17.55,0,*67
1483963473.72,18018,4.63,72796.5,-11.35,-18.83,-17.17,0,*64
1483963474.99,18019,4.63,72792.3,-11.35,-18.55,-17.11,0,*68
1483963476.29,18020,4.63,72784.3,-11.33,-18.93,-17.41,0,*6B
1483963477.56,18021,4.63,72790.3,-11.27,-18.55,-17.03,0,*63
1483963478.82,18022,4.56,72786.5,-11.31,-18.89,-17.41,0,*60
1483963480.06,18023,4.63,72788.8,-11.31,-19.03,-17.25,0,*60
1483963481.29,18024,4.63,72792.5,-11.27,-18.49,-16.59,0,*65
1483963482.5,18025,4.63,72790.8,-11.27,-18.73,-16.93,0,*6B
1483963483.72,18026,4.63,72794.5,-11.27,-19.47,-17.49,0,*68
1483963485.01,18027,4.63,72790.0,-11.25,-20.83,-18.55,0,*6B
1483963486.25,18028,4.63,72790.0,-11.23,-20.49,-17.73,0,*6F
1483963487.49,18029,4.63,72796.8,-11.23,-21.57,-18.49,0,*66
1483963488.7,18030,4.63,72798.3,-11.23,-22.37,-19.07,0,*60
1483963489.94,18031,4.63,72800.5,-11.25,-22.67,-19.13,0,*67
1483963491.21,18032,4.63,72800.8,-11.25,-22.53,-19.27,0,*64
1483963492.45,18033,4.63,72802.5,-11.23,-22.87,-20.19,0,*6D
1483963493.69,18034,4.63,72806.0,-11.23,-22.21,-19.75,0,*66
1483963494.96,18035,4.63,72804.8,-11.21,-21.93,-19.41,0,*68
1483963496.17,18036,4.63,72810.3,-11.19,-21.39,-18.49,0,*69
1483963497.46,18037,4.63,72812.3,-11.21,-21.27,-18.35,0,*67
1483963498.73,18038,4.63,72810.5,-11.17,-21.57,-18.45,0,*6D
1483963499.99,18039,4.63,72812.3,-11.17,-21.83,-18.65,0,*67
1483963501.23,18040,4.63,72806.5,-11.17,-21.47,-18.45,0,*63
1483963502.47,18041,4.63,72810.5,-11.13,-21.17,-18.41,0,*67
1483963503.71,18042,4.63,72808.8,-11.15,-20.83,-18.73,0,*6F
1483963504.91,18043,4.63,72808.5,-11.15,-20.09,-18.41,0,*6D
1483963506.13,18044,4.63,72814.0,-11.15,-20.69,-19.13,0,*6A
1483963507.33,18045,4.63,72816.0,-11.15,-20.09,-19.03,0,*6C
1483963508.59,18046,4.63,72814.0,-11.13,-19.41,-18.21,0,*6E
1483963509.86,18047,4.63,72814.3,-11.13,-19.57,-18.21,0,*68
1483963511.1,18048,4.63,72820.5,-11.11,-20.09,-17.97,0,*66
1483963512.34,18049,4.63,72814.8,-11.11,-20.43,-17.79,0,*69
1483963513.63,18050,4.63,72812.5,-11.09,-20.83,-18.31,0,*67
1483963514.86,18051,4.63,72814.8,-11.05,-20.79,-18.25,0,*6A
1483963516.08,18052,4.63,72814.0,-11.05,-20.93,-18.49,0,*67
1483963517.32,18053,4.63,72806.5,-11.05,-21.53,-19.07,0,*60
1483963518.56,18054,4.63,72804.5,-11.01,-20.89,-18.55,0,*63
1483963519.8,18055,4.63,72802.5,-11.01,-20.99,-18.73,0,*67
1483963521.06,18056,4.63,72796.3,-10.99,-21.39,-19.41,0,*6F
1483963522.33,18057,4.63,72802.0,-10.99,-21.53,-19.51,0,*63
1483963523.59,18058,4.63,72798.3,-10.97,-20.83,-18.89,0,*6A
1483963524.83,18059,4.63,72804.3,-10.99,-20.69,-18.69,0,*6F
1483963526.04,18060,4.63,72806.8,-10.97,-20.09,-18.21,0,*61
1483963527.3,18061,4.63,72804.3,-10.99,-19.91,-17.97,0,*67
1483963528.54,18062,4.63,72806.5,-10.97,-19.81,-17.83,0,*6E
1483963529.8,18063,4.63,72822.5,-10.97,-20.19,-17.79,0,*61
1483963531.01,18064,4.63,72816.0,-10.97,-20.39,-17.69,0,*65
1483963532.24,18065,4.63,72814.0,-10.97,-20.59,-17.69,0,*62
1483963533.48,18066,4.63,72808.8,-10.95,-21.47,-18.49,0,*60
1483963534.74,18067,4.63,72804.0,-10.95,-22.03,-18.93,0,*65
1483963535.98,18068,4.63,72820.0,-10.95,-22.83,-19.47,0,*6A
1483963537.19,18069,4.63,72824.3,-10.97,-22.93,-19.75,0,*69
1483963538.43,18070,4.63,72822.5,-10.97,-22.73,-19.51,0,*69
1483963539.67,18071,4.63,72820.5,-10.97,-22.63,-19.65,0,*6E
1483963540.88,18072,4.63,72812.3,-10.97,-22.63,-19.75,0,*6C
1483963542.12,18073,4.63,72806.5,-10.97,-22.93,-20.19,0,*62
1483963543.34,18074,4.56,72792.8,-10.97,-22.63,-20.05,0,*67
1483963544.61,18075,4.63,72788.5,-10.99,-23.03,-20.43,0,*6D
1483963545.86,18076,4.63,72798.3,-10.99,-22.93,-20.59,0,*6D
1483963547.15,18077,4.63,72802.8,-10.99,-22.73,-20.53,0,*68
1483963548.41,18078,4.63,72798.3,-10.99,-22.27,-20.19,0,*68
1483963549.63,18079,4.63,72802.8,-11.01,-21.77,-19.75,0,*6F
1483963550.9,18080,4.63,72804.3,-10.99,-21.67,-19.91,0,*62
1483963552.17,18081,4.63,72808.0,-11.01,-21.53,-19.81,0,*65
1483963553.41,18082,4.63,72810.5,-10.99,-21.77,-20.09,0,*6A
1483963554.63,18083,4.63,72804.3,-11.01,-21.47,-19.91,0,*63
1483963555.87,18084,4.63,72794.0,-11.01,-21.13,-19.57,0,*6F
1483963557.08,18085,4.63,72798.3,-11.01,-20.73,-18.99,0,*6A
1483963558.29,18086,4.56,72788.0,-11.01,-21.17,-19.47,0,*68
1483963559.51,18087,4.63,72768.8,-10.97,-21.93,-19.91,0,*60
1483963560.78,18088,4.63,72768.5,-10.99,-21.97,-20.05,0,*62
1483963562.02,18089,4.63,72774.8,-11.03,-22.27,-20.29,0,*67
1483963563.29,18090,4.63,72784.5,-11.03,-21.73,-19.65,0,*6F
1483963564.52,18091,4.63,72798.3,-11.09,-21.93,-19.91,0,*61
1483963565.73,18092,4.63,72796.8,-11.05,-20.25,-18.17,0,*6D
1483963567.0,18093,4.63,72796.8,-11.05,-19.85,-17.97,0,*6B
1483963568.26,18094,4.63,72804.3,-11.05,-19.57,-17.87,0,*62
1483963569.46,18095,4.63,72788.5,-11.05,-20.29,-18.49,0,*6D
1483963570.7,18096,4.63,72790.5,-11.05,-20.63,-18.59,0,*61
1483963571.94,18097,4.56,72780.3,-11.05,-21.23,-18.79,0,*67
1483963573.14,18098,4.63,72788.3,-11.11,-21.63,-19.07,0,*61
1483963574.36,18099,4.63,72798.5,-11.11,-21.77,-19.13,0,*60
1483963575.57,18100,4.63,72800.8,-11.11,-22.37,-19.71,0,*62
1483963576.86,18101,4.63,72802.8,-11.13,-23.23,-20.49,0,*64
1483963578.13,18102,4.63,72800.5,-11.15,-22.21,-19.27,0,*60
1483963579.36,18103,4.63,72802.3,-11.15,-21.97,-19.03,0,*69
1483963580.6,18104,4.63,72796.0,-11.15,-22.27,-19.31,0,*67
1483963581.89,18105,4.63,72786.0,-11.13,-22.73,-19.61,0,*64
1483963583.18,18106,4.63,72788.8,-11.13,-23.23,-20.19,0,*66
1483963584.43,18107,4.63,72786.5,-11.17,-23.75,-20.59,0,*64
1483963585.69,18108,4.63,72794.0,-11.15,-23.23,-20.19,0,*6E
1483963586.96,18109,4.63,72790.5,-11.17,-23.09,-20.15,0,*69
1483963588.2,18110,4.63,72786.5,-11.17,-22.83,-20.25,0,*61
1483963589.46,18111,4.63,72784.0,-11.17,-22.63,-20.15,0,*6D
1483963590.7,18112,4.63,72786.0,-11.21,-22.37,-19.99,0,*64
1483963591.94,18113,4.63,72780.0,-11.19,-22.31,-19.91,0,*60
1483963593.16,18114,4.63,72776.0,-11.19,-22.03,-19.71,0,*68
1483963594.4,18115,4.56,72778.5,-11.19,-21.57,-19.37,0,*69
1483963595.64,18116,4.63,72776.0,-11.19,-21.93,-19.65,0,*65
1483963596.91,18117,4.63,72774.3,-11.19,-22.21,-19.85,0,*60
1483963598.17,18118,4.63,72780.0,-11.21,-22.07,-19.65,0,*6E
1483963599.4,18119,4.63,72776.8,-11.21,-21.73,-19.07,0,*6B
1483963600.67,18120,4.56,72780.3,-11.21,-22.17,-19.37,0,*63
1483963601.94,18121,4.56,72774.8,-11.21,-23.13,-20.19,0,*61
1483963603.19,18122,4.63,72786.3,-11.21,-23.59,-20.59,0,*68
1483963604.47,18123,4.63,72788.0,-11.23,-23.33,-20.49,0,*66
1483963605.71,18124,4.63,72796.5,-11.25,-22.57,-20.05,0,*6C
1483963606.95,18125,4.63,72802.8,-11.25,-22.11,-19.71,0,*66
1483963608.22,18126,4.63,72806.5,-11.23,-21.97,-19.57,0,*6A
1483963609.49,18127,4.63,72812.5,-11.25,-21.83,-19.47,0,*69
1483963610.73,18128,4.63,72810.8,-11.23,-21.77,-19.27,0,*6D
1483963611.95,18129,4.63,72810.3,-11.23,-21.77,-19.13,0,*6B
1483963613.23,18130,4.56,72808.8,-11.23,-22.47,-19.57,0,*63
1483963614.47,18131,4.63,72808.3,-11.21,-22.67,-19.75,0,*62
1483963615.7,18132,4.63,72804.5,-11.21,-22.63,-19.75,0,*65
1483963616.97,18133,4.63,72798.8,-11.17,-22.31,-19.71,0,*62
1483963618.21,18134,4.63,72798.5,-11.17,-21.47,-19.17,0,*67
1483963619.48,18135,4.63,72798.8,-11.17,-21.83,-19.37,0,*6C
1483963620.69,18136,4.63,72800.5,-11.15,-22.37,-19.75,0,*67
1483963621.92,18137,4.63,72800.3,-11.13,-22.07,-19.13,0,*63
1483963623.18,18138,4.63,72806.3,-11.17,-22.03,-19.23,0,*6F
1483963624.47,18139,4.63,72802.8,-11.17,-22.31,-19.61,0,*69
1483963625.76,18140,4.63,72802.8,-11.17,-21.83,-19.23,0,*6B
1483963627.02,18141,4.63,72802.8,-11.17,-21.33,-18.65,0,*62
1483963628.26,18142,4.63,72802.3,-11.17,-21.39,-19.17,0,*6F
1483963629.55,18143,4.63,72798.8,-11.17,-21.67,-19.31,0,*61
1483963630.79,18144,4.63,72796.0,-11.19,-21.23,-19.07,0,*6D
1483963632.0,18145,4.63,72800.8,-11.19,-20.93,-18.99,0,*60
1483963633.21,18146,4.63,72800.8,-11.19,-20.93,-18.99,0,*63
1483963634.45,18147,4.63,72802.3,-11.21,-20.43,-18.45,0,*65
1483963635.7,18148,4.63,72802.5,-11.19,-20.59,-18.31,0,*69
1483963636.92,18149,4.63,72800.3,-11.19,-20.93,-18.49,0,*61
1483963638.16,18150,4.63,72802.3,-11.19,-20.69,-18.01,0,*60
1483963639.42,18151,4.63,72800.0,-11.21,-20.93,-18.01,0,*6F
1483963640.66,18152,4.63,72804.5,-11.19,-21.13,-17.93,0,*6A
1483963641.93,18153,4.63,72800.5,-11.19,-21.57,-18.35,0,*68
1483963643.17,18154,4.63,72802.8,-11.19,-22.21,-18.69,0,*64
1483963644.44,18155,4.63,72800.8,-11.17,-22.97,-19.31,0,*6A
1483963645.7,18156,4.63,72798.0,-11.17,-23.39,-19.41,0,*6B
1483963646.99,18157,4.63,72784.5,-11.13,-23.33,-19.61,0,*66
1483963648.23,18158,4.63,72780.5,-11.13,-23.89,-20.09,0,*6C
1483963649.49,18159,4.63,72770.0,-11.13,-23.69,-19.91,0,*68
1483963650.72,18160,4.63,72770.0,-11.11,-24.31,-20.43,0,*6F
1483963651.98,18161,4.63,72776.5,-11.13,-25.61,-21.53,0,*68
1483963653.24,18162,4.63,72784.5,-11.11,-26.55,-22.31,0,*6A
1483963654.54,18163,4.63,72784.5,-11.17,-26.55,-22.47,0,*6C
1483963655.83,18164,4.63,72784.8,-11.17,-26.71,-22.77,0,*6E
1483963657.06,18165,4.63,72786.0,-11.17,-26.39,-22.41,0,*66
1483963658.3,18166,4.63,72790.3,-11.19,-25.75,-22.07,0,*62
1483963659.55,18167,4.63,72796.5,-11.21,-26.39,-22.97,0,*6A
1483963660.84,18168,4.63,72788.3,-11.21,-25.45,-22.47,0,*60
1483963662.13,18169,4.63,72800.3,-11.21,-23.99,-21.27,0,*63
1483963663.38,18170,4.63,72796.0,-11.23,-24.11,-21.77,0,*6B
1483963664.62,18171,4.63,72796.5,-11.23,-22.97,-20.79,0,*6D
1483963665.86,18172,4.63,72810.5,-11.21,-21.93,-19.99,0,*6F
1483963667.11,18173,4.63,72804.3,-11.19,-21.63,-19.65,0,*69
1483963668.31,18174,4.63,72806.0,-11.23,-21.13,-19.07,0,*64
1483963669.58,18175,4.63,72808.3,-11.21,-21.43,-19.27,0,*60
1483963670.84,18176,4.63,72810.8,-11.21,-21.73,-19.23,0,*64
1483963672.05,18177,4.63,72806.8,-11.19,-21.77,-18.99,0,*6A
1483963673.3,18178,4.63,72810.3,-11.23,-22.17,-19.13,0,*6A
1483963674.53,18179,4.63,72804.3,-11.23,-22.03,-18.59,0,*61
1483963675.74,18180,4.63,72810.8,-11.23,-22.37,-19.07,0,*6A
1483963676.98,18181,4.63,72812.5,-11.23,-23.19,-19.51,0,*65
1483963678.22,18182,4.63,72812.8,-11.23,-22.21,-18.49,0,*64
1483963679.5,18183,4.63,72812.3,-11.23,-23.29,-19.57,0,*62
1483963680.73,18184,4.63,72812.0,-11.25,-23.09,-19.03,0,*60
1483963681.98,18185,4.63,72808.0,-11.23,-23.43,-19.27,0,*6F
1483963683.22,18186,4.63,72812.5,-11.23,-24.11,-19.91,0,*61
1483963684.49,18187,4.63,72806.3,-11.25,-24.77,-20.35,0,*62
1483963685.76,18188,4.63,72798.8,-11.25,-24.67,-20.25,0,*6D
1483963687.01,18189,4.63,72800.8,-11.25,-25.61,-21.17,0,*6B
1483963688.25,18190,4.63,72800.3,-11.25,-25.19,-20.89,0,*6A
1483963689.49,18191,4.63,72806.5,-11.25,-24.97,-20.69,0,*62
1483963690.76,18192,4.63,72794.3,-11.25,-26.17,-21.77,0,*65
1483963692.01,18193,4.63,72776.8,-11.27,-26.33,-21.93,0,*6A
1483963693.26,18194,4.63,72778.3,-11.31,-26.49,-21.67,0,*6C
1483963694.49,18195,4.63,72778.5,-11.31,-27.23,-22.41,0,*67
1483963695.73,18196,4.63,72778.0,-11.33,-27.03,-22.41,0,*64
1483963697.0,18197,4.63,72774.0,-11.35,-26.55,-22.17,0,*62
1483963698.23,18198,4.63,72768.5,-11.33,-26.39,-22.41,0,*62
1483963699.53,18199,4.63,72776.8,-11.33,-25.81,-22.17,0,*60